Weather in Красноармейск

Kazakhstan     53°49′58″N   69°45′00″E
temp.,
°C
wind,
m/s
gust,
m/s
humid.,
%
clouds,
%
prec.,
mm/h
press.,
hPa
HPBL,
m
1 march, mon
mon123:00−5e5896100 1.9 1005244
02:00−7ene5796100 1.2 1005236
05:00−9ne4696100 2.1 1006176
08:00−12nne3596100 0.4 1008176
11:00−12n349496 0.6 1009243
14:00−12nnw349397 0.1 1011318
17:00−13nw359598 0.1 1014212
20:00−15wnw339787 0.1 101662
2 march, tue
tue223:00−18w349886 0.1 101741
02:00−20wsw349997 0.0 101738
05:00−21wsw339897 0.1 101734
08:00−19wsw229898 0.1 101775
11:00−16sw349390 0.2 1016242
14:00−13wsw248988 0.0 1015346
17:00−13sw229393 0.0 101421
20:00−14sw349493 0.0 101463
3 march, wed
wed323:00−15sw499383 0.0 1015164
02:00−18ssw5119136 0.0 1014239
05:00−18ssw6138918 0.0 1014311
08:00−17ssw6139065 0.0 1013352
11:00−11sw8149082 0.1 1012534
14:00−8sw81492100 0.4 1011675
17:00−6sw81585100 0.7 1010757
20:00−5sw81784100 0.0 1008701
4 march, thu
thu423:00−3sw81587100 0.0 1007772
02:00−2sw81586100 0.0 1006712
05:00−2ssw71585100 0.0 1005661
08:00−1ssw81586100 0.0 1003900
11:000sw91584100 0.0 10021057
14:00+1sw81388100 0.0 10011019
17:000sw61386100 0.5 1001839
20:00−2sw61388100 0.0 1002532
5 march, fri
fri523:00−6w6128994 0.1 1005417
02:00−11wsw6119454 0.0 1007257
05:00−12wsw5129154 0.0 1011210
08:00−12sw714880 0.0 1012302
11:00−6sw11187938 0.0 1011879
14:00−5sw122080100 0.0 1010957
17:00−5sw122180100 0.0 10101033
20:00−3wsw122183100 0.0 10091131